Time,TemperatureF,DewpointF,PressureIn,WindDirection,WindDirectionDegrees,WindSpeedMPH,WindSpeedGustMPH,Humidity,HourlyPrecipIn,Conditions,Clouds,dailyrainin,SoftwareType,DateUTC
2013-09-11 00:13:00,60.0,57.0,-100.00,South,188,3.0,6.0,89,0.00,,,0.16,,2013-09-11 05:13:00,
2013-09-11 00:23:00,60.0,57.0,-100.00,South,188,3.0,6.0,89,0.00,,,0.16,,2013-09-11 05:23:00,
2013-09-11 00:34:00,60.0,57.0,-100.00,South,188,3.0,6.0,89,0.00,,,0.16,,2013-09-11 05:34:00,
2013-09-11 01:12:00,58.0,57.0,-100.00,South,187,3.0,5.0,96,0.00,,,0.13,,2013-09-11 06:12:00,
2013-09-11 01:22:00,58.0,57.0,-100.00,South,187,3.0,5.0,96,0.00,,,0.13,,2013-09-11 06:22:00,
2013-09-11 01:32:00,58.0,57.0,-100.00,South,187,3.0,5.0,96,0.00,,,0.13,,2013-09-11 06:32:00,
2013-09-11 02:12:00,58.0,57.0,-100.00,SSW,192,3.0,7.0,97,0.00,,,-99.99,,2013-09-11 07:12:00,
2013-09-11 02:23:00,58.0,57.0,-100.00,SSW,192,3.0,7.0,97,0.00,,,-99.99,,2013-09-11 07:23:00,
2013-09-11 02:32:00,58.0,57.0,-100.00,SSW,192,3.0,7.0,97,0.00,,,-99.99,,2013-09-11 07:32:00,
2013-09-11 03:12:00,60.0,59.0,-100.00,South,183,5.0,8.0,95,0.00,,,0.05,,2013-09-11 08:12:00,
2013-09-11 03:22:00,60.0,59.0,-100.00,South,183,5.0,8.0,95,0.00,,,0.05,,2013-09-11 08:22:00,
2013-09-11 03:32:00,60.0,59.0,-100.00,South,183,5.0,8.0,95,0.00,,,0.05,,2013-09-11 08:32:00,
2013-09-11 04:12:00,59.0,58.0,-100.00,South,188,5.0,9.0,96,0.00,,,0.05,,2013-09-11 09:12:00,
2013-09-11 04:21:00,59.0,58.0,-100.00,South,188,5.0,9.0,96,0.00,,,0.05,,2013-09-11 09:21:00,
2013-09-11 04:33:00,59.0,58.0,-100.00,South,188,5.0,9.0,96,0.00,,,0.05,,2013-09-11 09:33:00,
2013-09-11 05:13:00,58.0,57.0,-100.00,South,185,5.0,8.0,97,0.00,,,0.02,,2013-09-11 10:13:00,
2013-09-11 05:23:00,58.0,57.0,-100.00,South,185,5.0,8.0,97,0.00,,,0.02,,2013-09-11 10:23:00,
2013-09-11 05:33:00,58.0,57.0,-100.00,South,185,5.0,8.0,97,0.00,,,0.02,,2013-09-11 10:33:00,
2013-09-11 06:12:00,58.0,57.0,-100.00,South,187,5.0,9.0,96,0.00,,,0.02,,2013-09-11 11:12:00,
2013-09-11 06:21:00,58.0,57.0,-100.00,South,187,5.0,9.0,96,0.00,,,0.02,,2013-09-11 11:21:00,
2013-09-11 06:33:00,58.0,57.0,-100.00,South,187,5.0,9.0,96,0.00,,,0.02,,2013-09-11 11:33:00,
2013-09-11 07:11:00,59.0,58.0,-100.00,South,191,5.0,8.0,98,0.00,,,-99.99,,2013-09-11 12:11:00,
2013-09-11 07:21:00,59.0,58.0,-100.00,South,191,5.0,8.0,98,0.00,,,-99.99,,2013-09-11 12:21:00,
2013-09-11 07:32:00,59.0,58.0,-100.00,South,191,5.0,8.0,98,0.00,,,-99.99,,2013-09-11 12:32:00,
2013-09-11 08:12:00,60.0,59.0,-100.00,SSW,193,4.0,10.0,96,0.00,,,-99.99,,2013-09-11 13:12:00,
2013-09-11 08:22:00,60.0,59.0,-100.00,SSW,193,4.0,10.0,96,0.00,,,-99.99,,2013-09-11 13:22:00,
2013-09-11 08:32:00,60.0,59.0,-100.00,SSW,193,4.0,10.0,96,0.00,,,-99.99,,2013-09-11 13:32:00,
2013-09-11 09:11:00,61.0,59.0,-100.00,WSW,238,4.0,10.0,94,0.00,,,0.02,,2013-09-11 14:11:00,
2013-09-11 09:22:00,61.0,59.0,-100.00,WSW,238,4.0,10.0,94,0.00,,,0.02,,2013-09-11 14:22:00,
2013-09-11 09:32:00,61.0,59.0,-100.00,WSW,238,4.0,10.0,94,0.00,,,0.02,,2013-09-11 14:32:00,
2013-09-11 10:11:00,62.0,60.0,-100.00,SW,224,4.0,10.0,94,0.00,,,0.01,,2013-09-11 15:11:00,
2013-09-11 10:22:00,62.0,60.0,-100.00,SW,224,4.0,10.0,94,0.00,,,0.01,,2013-09-11 15:22:00,
2013-09-11 10:33:00,62.0,60.0,-100.00,SW,224,4.0,10.0,94,0.00,,,0.01,,2013-09-11 15:33:00,
2013-09-11 11:13:00,65.0,59.0,-100.00,NE,40,3.0,8.0,80,0.00,,,0.01,,2013-09-11 16:13:00,
2013-09-11 11:23:00,65.0,59.0,-100.00,NE,40,3.0,8.0,80,0.00,,,0.01,,2013-09-11 16:23:00,
2013-09-11 11:33:00,65.0,59.0,-100.00,NE,40,3.0,8.0,80,0.00,,,0.01,,2013-09-11 16:33:00,
2013-09-11 12:12:00,67.0,53.0,-100.00,ENE,64,4.0,12.0,61,0.00,,,0.01,,2013-09-11 17:12:00,
2013-09-11 12:23:00,67.0,53.0,-100.00,ENE,64,4.0,12.0,61,0.00,,,0.01,,2013-09-11 17:23:00,
2013-09-11 12:34:00,67.0,53.0,-100.00,ENE,64,4.0,12.0,61,0.00,,,0.01,,2013-09-11 17:34:00,
2013-09-11 13:12:00,71.0,52.0,-100.00,NE,49,6.0,13.0,52,0.00,,,0.00,,2013-09-11 18:12:00,
2013-09-11 13:22:00,71.0,52.0,-100.00,NE,49,6.0,13.0,52,0.00,,,0.00,,2013-09-11 18:22:00,
2013-09-11 13:32:00,71.0,52.0,-100.00,NE,49,6.0,13.0,52,0.00,,,0.00,,2013-09-11 18:32:00,
2013-09-11 14:11:00,71.0,51.0,-100.00,NE,48,4.0,13.0,50,0.00,,,0.00,,2013-09-11 19:11:00,
2013-09-11 14:22:00,71.0,51.0,-100.00,NE,48,4.0,13.0,50,0.00,,,0.00,,2013-09-11 19:22:00,
2013-09-11 14:32:00,71.0,51.0,-100.00,NE,48,4.0,13.0,50,0.00,,,0.00,,2013-09-11 19:32:00,
2013-09-11 15:12:00,75.0,54.0,-100.00,ENE,65,4.0,10.0,48,0.00,,,0.00,,2013-09-11 20:12:00,
2013-09-11 15:22:00,75.0,54.0,-100.00,ENE,65,4.0,10.0,48,0.00,,,0.00,,2013-09-11 20:22:00,
2013-09-11 15:32:00,75.0,54.0,-100.00,ENE,65,4.0,10.0,48,0.00,,,0.00,,2013-09-11 20:32:00,
2013-09-11 16:12:00,75.0,52.0,-100.00,NE,34,4.0,9.0,45,0.00,,,0.00,,2013-09-11 21:12:00,
2013-09-11 16:22:00,75.0,52.0,-100.00,NE,34,4.0,9.0,45,0.00,,,0.00,,2013-09-11 21:22:00,
2013-09-11 16:34:00,75.0,52.0,-100.00,NE,34,4.0,9.0,45,0.00,,,0.00,,2013-09-11 21:34:00,
2013-09-11 17:13:00,73.0,53.0,-100.00,SW,225,3.0,9.0,50,0.00,,,0.00,,2013-09-11 22:13:00,
2013-09-11 17:24:00,73.0,53.0,-100.00,SW,225,3.0,9.0,50,0.00,,,0.00,,2013-09-11 22:24:00,
2013-09-11 17:33:00,73.0,53.0,-100.00,SW,225,3.0,9.0,50,0.00,,,0.00,,2013-09-11 22:33:00,
2013-09-11 18:12:00,74.0,52.0,-100.00,SSW,208,2.0,5.0,47,0.00,,,0.00,,2013-09-11 23:12:00,
2013-09-11 18:22:00,74.0,52.0,-100.00,SSW,208,2.0,5.0,47,0.00,,,0.00,,2013-09-11 23:22:00,
2013-09-11 18:34:00,74.0,52.0,-100.00,SSW,208,2.0,5.0,47,0.00,,,0.00,,2013-09-11 23:34:00,
2013-09-11 20:11:00,54.0,53.0,-100.00,North,350,2.0,7.0,97,0.08,,,0.35,,2013-09-12 01:11:00,
2013-09-11 20:22:00,54.0,53.0,-100.00,North,350,2.0,7.0,97,0.08,,,0.35,,2013-09-12 01:22:00,
2013-09-11 20:32:00,54.0,53.0,-100.00,North,350,2.0,7.0,97,0.08,,,0.35,,2013-09-12 01:32:00,
2013-09-11 21:12:00,51.0,50.0,-100.00,ESE,105,0.0,3.0,97,0.00,,,0.35,,2013-09-12 02:12:00,
2013-09-11 21:22:00,51.0,50.0,-100.00,ESE,105,0.0,3.0,97,0.00,,,0.35,,2013-09-12 02:22:00,
2013-09-11 21:33:00,51.0,50.0,-100.00,ESE,105,0.0,3.0,97,0.00,,,0.35,,2013-09-12 02:33:00,
2013-09-11 22:11:00,51.0,50.0,-100.00,South,184,0.0,3.0,98,0.00,,,0.35,,2013-09-12 03:11:00,
2013-09-11 22:22:00,51.0,50.0,-100.00,South,184,0.0,3.0,98,0.00,,,0.35,,2013-09-12 03:22:00,
2013-09-11 22:34:00,51.0,50.0,-100.00,South,184,0.0,3.0,98,0.00,,,0.35,,2013-09-12 03:34:00,
2013-09-11 23:14:00,52.0,52.0,-100.00,South,188,3.0,6.0,99,0.00,,,0.35,,2013-09-12 04:14:00,
2013-09-11 23:24:00,52.0,52.0,-100.00,South,188,3.0,6.0,99,0.00,,,0.35,,2013-09-12 04:24:00,
2013-09-11 23:34:00,52.0,52.0,-100.00,South,188,3.0,6.0,99,0.00,,,0.35,,2013-09-12 04:34:00,